| time (UTC) | temp C | wind direction | speed KPH | gust KPH | rain 1hr cm | rain 24hr cm | rain mn cm | humidity % | barometer mb |
| 20260506034008 | 18 | 253 | 3.2 | 6.4 | 0.00 | 0.69 | 0.38 | 39 | 1010.4 |
| 20260506033506 | 18 | 253 | 3.2 | 8.0 | 0.00 | 0.69 | 0.38 | 40 | 1010.4 |
| 20260506033004 | 18 | 253 | 1.6 | 11.3 | 0.00 | 0.69 | 0.38 | 40 | 1010.3 |
| 20260506032503 | 18 | 253 | 4.8 | 11.3 | 0.00 | 0.69 | 0.38 | 39 | 1010.2 |
| 20260506032004 | 18 | 257 | 1.6 | 11.3 | 0.00 | 0.69 | 0.38 | 38 | 1010.2 |
| 20260506031503 | 18 | 257 | 3.2 | 11.3 | 0.00 | 0.69 | 0.38 | 37 | 1010.0 |
| 20260506031004 | 18 | 257 | 1.6 | 9.7 | 0.00 | 0.69 | 0.38 | 38 | 1009.9 |
| 20260506030504 | 18 | 257 | 1.6 | 4.8 | 0.00 | 0.69 | 0.38 | 38 | 1009.9 |
| 20260506030005 | 18 | 257 | 1.6 | 11.3 | 0.00 | 0.69 | 0.38 | 39 | 1009.8 |
| 20260506025503 | 18 | 257 | 4.8 | 14.5 | 0.00 | 0.69 | 0.38 | 38 | 1009.8 |
| 20260506025004 | 18 | 265 | 6.4 | 14.5 | 0.00 | 0.71 | 0.38 | 38 | 1009.8 |
| 20260506024505 | 18 | 230 | 3.2 | 12.9 | 0.00 | 0.71 | 0.38 | 38 | 1009.6 |
| 20260506024006 | 18 | 223 | 3.2 | 14.5 | 0.00 | 0.71 | 0.38 | 37 | 1009.5 |
| 20260506023505 | 18 | 224 | 6.4 | 14.5 | 0.00 | 0.71 | 0.38 | 37 | 1009.5 |
| 20260506023007 | 19 | 242 | 4.8 | 16.1 | 0.00 | 0.71 | 0.38 | 37 | 1009.5 |
| 20260506022505 | 19 | 234 | 6.4 | 16.1 | 0.00 | 0.71 | 0.38 | 36 | 1009.4 |
| 20260506022002 | 19 | 230 | 6.4 | 19.3 | 0.00 | 0.71 | 0.38 | 36 | 1009.3 |
| 20260506021504 | 19 | 226 | 6.4 | 19.3 | 0.00 | 0.71 | 0.38 | 36 | 1009.3 |
| 20260506021005 | 19 | 236 | 4.8 | 20.9 | 0.00 | 0.71 | 0.38 | 35 | 1009.1 |
| 20260506020507 | 19 | 224 | 6.4 | 20.9 | 0.00 | 0.74 | 0.38 | 35 | 1009.0 |
| 20260506020003 | 19 | 233 | 8.0 | 16.1 | 0.00 | 0.74 | 0.38 | 34 | 1009.0 |
| 20260506015503 | 20 | 245 | 8.0 | 22.5 | 0.00 | 0.74 | 0.38 | 34 | 1008.9 |
| 20260506015003 | 20 | 231 | 11.3 | 25.7 | 0.00 | 0.76 | 0.38 | 33 | 1008.8 |
| 20260506014506 | 20 | 251 | 6.4 | 25.7 | 0.00 | 0.76 | 0.38 | 32 | 1008.9 |
| 20260506014004 | 20 | 255 | 9.7 | 22.5 | 0.00 | 0.79 | 0.38 | 31 | 1008.8 |
| 20260506013504 | 20 | 238 | 11.3 | 24.1 | 0.00 | 0.81 | 0.38 | 30 | 1008.8 |
| 20260506013008 | 20 | 255 | 12.9 | 24.1 | 0.00 | 0.81 | 0.38 | 28 | 1008.7 |
| 20260506012504 | 20 | 223 | 14.5 | 27.4 | 0.00 | 0.84 | 0.38 | 28 | 1008.6 |
| 20260506012010 | 20 | 248 | 17.7 | 27.4 | 0.00 | 0.84 | 0.38 | 28 | 1008.6 |
| 20260506011517 | 21 | 244 | 11.3 | 30.6 | 0.00 | 0.84 | 0.38 | 28 | 1008.6 |
| 20260506011005 | 21 | 259 | 17.7 | 33.8 | 0.00 | 0.84 | 0.38 | 29 | 1008.6 |
| 20260506010502 | 21 | 256 | 12.9 | 33.8 | 0.00 | 0.84 | 0.38 | 30 | 1008.6 |
| 20260506010004 | 21 | 252 | 9.7 | 30.6 | 0.00 | 0.84 | 0.38 | 30 | 1008.5 |
| 20260506005502 | 20 | 261 | 17.7 | 30.6 | 0.00 | 0.84 | 0.38 | 30 | 1008.5 |
| 20260506005004 | 21 | 269 | 14.5 | 32.2 | 0.00 | 0.84 | 0.38 | 31 | 1008.4 |
| 20260506004503 | 21 | 271 | 14.5 | 32.2 | 0.00 | 0.84 | 0.38 | 31 | 1008.4 |
| 20260506004003 | 21 | 237 | 16.1 | 41.8 | 0.00 | 0.84 | 0.38 | 31 | 1008.3 |
| 20260506003503 | 21 | 246 | 12.9 | 41.8 | 0.00 | 0.84 | 0.38 | 30 | 1008.3 |
| 20260506003005 | 21 | 259 | 19.3 | 35.4 | 0.00 | 0.84 | 0.38 | 30 | 1008.2 |
| 20260506002504 | 21 | 221 | 17.7 | 35.4 | 0.00 | 0.84 | 0.38 | 30 | 1008.2 |
| 20260506002007 | 22 | 242 | 14.5 | 29.0 | 0.00 | 0.84 | 0.38 | 29 | 1008.1 |
| 20260506001513 | 22 | 263 | 11.3 | 33.8 | 0.00 | 0.84 | 0.38 | 30 | 1008.0 |
| 20260506001005 | 21 | 265 | 19.3 | 33.8 | 0.00 | 0.84 | 0.38 | 30 | 1008.1 |
| 20260506000509 | 22 | 234 | 16.1 | 32.2 | 0.00 | 0.84 | 0.38 | 29 | 1008.1 |
| 20260506000018 | 22 | 232 | 11.3 | 30.6 | 0.00 | 0.84 | 0.38 | 29 | 1008.0 |
| 20260505235502 | 22 | 246 | 19.3 | 30.6 | 0.00 | 0.84 | 0.38 | 30 | 1008.0 |
| 20260505235003 | 21 | 244 | 12.9 | 35.4 | 0.00 | 0.84 | 0.38 | 32 | 1007.8 |
| 20260505234504 | 22 | 269 | 17.7 | 35.4 | 0.00 | 0.84 | 0.38 | 31 | 1007.8 |
| 20260505234004 | 22 | 262 | 12.9 | 40.2 | 0.00 | 0.84 | 0.38 | 31 | 1007.8 |
| 20260505233503 | 22 | 243 | 14.5 | 40.2 | 0.00 | 0.84 | 0.38 | 29 | 1007.8 |
| 20260505233020 | 22 | 264 | 12.9 | 29.0 | 0.00 | 0.84 | 0.38 | 30 | 1007.8 |
| 20260505232503 | 21 | 269 | 12.9 | 33.8 | 0.00 | 0.84 | 0.38 | 32 | 1007.8 |
| 20260505232004 | 21 | 264 | 16.1 | 33.8 | 0.00 | 0.84 | 0.38 | 31 | 1007.8 |
| 20260505231512 | 22 | 255 | 17.7 | 32.2 | 0.00 | 0.84 | 0.38 | 31 | 1007.8 |
| 20260505231008 | 22 | 269 | 12.9 | 35.4 | 0.00 | 0.84 | 0.38 | 31 | 1007.8 |
| 20260505230505 | 22 | 232 | 16.1 | 35.4 | 0.00 | 0.84 | 0.38 | 31 | 1007.8 |
| 20260505230020 | 22 | 270 | 17.7 | 32.2 | 0.00 | 0.84 | 0.38 | 30 | 1007.7 |
| 20260505225508 | 22 | 271 | 16.1 | 29.0 | 0.00 | 0.84 | 0.38 | 30 | 1007.7 |
| 20260505225008 | 22 | 232 | 14.5 | 33.8 | 0.00 | 0.84 | 0.38 | 29 | 1007.9 |
| 20260505224527 | 22 | 260 | 11.3 | 33.8 | 0.00 | 0.84 | 0.38 | 30 | 1008.0 |
| 20260505224002 | 22 | 254 | 20.9 | 32.2 | 0.00 | 0.84 | 0.38 | 30 | 1008.1 |
| 20260505223503 | 22 | 259 | 6.4 | 30.6 | 0.00 | 0.84 | 0.38 | 31 | 1008.0 |
| 20260505223009 | 22 | 219 | 16.1 | 30.6 | 0.00 | 0.84 | 0.38 | 31 | 1008.3 |
| 20260505222503 | 21 | 235 | 11.3 | 29.0 | 0.00 | 0.84 | 0.38 | 33 | 1008.1 |
| 20260505222004 | 22 | 257 | 11.3 | 32.2 | 0.00 | 0.84 | 0.38 | 31 | 1008.3 |
| 20260505221507 | 22 | 271 | 16.1 | 32.2 | 0.00 | 0.84 | 0.38 | 31 | 1008.4 |
| 20260505221006 | 22 | 267 | 16.1 | 32.2 | 0.00 | 0.84 | 0.38 | 31 | 1008.2 |
| 20260505220504 | 22 | 226 | 11.3 | 32.2 | 0.00 | 0.84 | 0.38 | 31 | 1008.4 |
| 20260505220013 | 22 | 254 | 9.7 | 32.2 | 0.00 | 0.84 | 0.38 | 32 | 1008.4 |
| 20260505215505 | 22 | 228 | 11.3 | 32.2 | 0.00 | 0.84 | 0.38 | 32 | 1008.5 |
| 20260505215006 | 22 | 214 | 16.1 | 32.2 | 0.00 | 0.84 | 0.38 | 33 | 1008.8 |
| 20260505214521 | 22 | 262 | 6.4 | 32.2 | 0.00 | 0.84 | 0.38 | 32 | 1008.6 |
| 20260505214007 | 22 | 269 | 12.9 | 27.4 | 0.00 | 0.84 | 0.38 | 33 | 1008.6 |
| 20260505213512 | 21 | 281 | 9.7 | 22.5 | 0.00 | 0.84 | 0.38 | 34 | 1008.7 |
| 20260505213004 | 22 | 242 | 1.6 | 22.5 | 0.00 | 0.84 | 0.38 | 34 | 1008.7 |
| 20260505212504 | 22 | 264 | 9.7 | 32.2 | 0.00 | 0.84 | 0.38 | 36 | 1008.7 |
| 20260505212003 | 22 | 246 | 14.5 | 32.2 | 0.00 | 0.84 | 0.38 | 34 | 1008.7 |
| 20260505211508 | 22 | 257 | 11.3 | 29.0 | 0.00 | 0.84 | 0.38 | 36 | 1008.8 |
| 20260505211005 | 21 | 262 | 12.9 | 29.0 | 0.00 | 0.84 | 0.38 | 37 | 1008.9 |
| 20260505210503 | 21 | 239 | 17.7 | 32.2 | 0.00 | 0.84 | 0.38 | 39 | 1009.0 |
| 20260505210014 | 21 | 263 | 20.9 | 32.2 | 0.00 | 0.84 | 0.38 | 42 | 1009.1 |
| 20260505205509 | 22 | 291 | 14.5 | 27.4 | 0.00 | 0.84 | 0.38 | 42 | 1009.1 |
| 20260505205009 | 21 | 288 | 12.9 | 27.4 | 0.00 | 0.84 | 0.38 | 43 | 1009.0 |
| 20260505204523 | 21 | 263 | 14.5 | 25.7 | 0.00 | 0.84 | 0.38 | 44 | 1009.1 |
| 20260505204006 | 21 | 304 | 11.3 | 32.2 | 0.00 | 0.84 | 0.38 | 46 | 1009.2 |
| 20260505203508 | 21 | 280 | 11.3 | 32.2 | 0.00 | 0.84 | 0.38 | 46 | 1009.1 |
| 20260505203023 | 20 | 237 | 12.9 | 27.4 | 0.00 | 0.84 | 0.38 | 49 | 1009.3 |
| 20260505202507 | 20 | 270 | 11.3 | 30.6 | 0.00 | 0.84 | 0.38 | 51 | 1009.1 |
| 20260505202003 | 20 | 248 | 11.3 | 32.2 | 0.00 | 0.84 | 0.38 | 51 | 1009.2 |
| 20260505201505 | 20 | 253 | 12.9 | 32.2 | 0.00 | 0.84 | 0.38 | 50 | 1009.3 |
| 20260505201004 | 20 | 276 | 6.4 | 22.5 | 0.00 | 0.84 | 0.38 | 50 | 1009.4 |
| 20260505200503 | 20 | 247 | 8.0 | 19.3 | 0.00 | 0.84 | 0.38 | 51 | 1009.3 |
| 20260505200021 | 20 | 243 | 3.2 | 19.3 | 0.00 | 0.84 | 0.38 | 49 | 1009.5 |
| 20260505195504 | 21 | 219 | 8.0 | 19.3 | 0.00 | 0.84 | 0.38 | 50 | 1009.5 |
| 20260505195008 | 20 | 236 | 8.0 | 22.5 | 0.00 | 0.84 | 0.38 | 50 | 1009.5 |
| 20260505194513 | 20 | 221 | 6.4 | 22.5 | 0.00 | 0.84 | 0.38 | 51 | 1009.7 |
| 20260505194009 | 20 | 234 | 8.0 | 20.9 | 0.00 | 0.84 | 0.38 | 54 | 1009.6 |
| 20260505193508 | 19 | 281 | 8.0 | 20.9 | 0.00 | 0.84 | 0.38 | 52 | 1009.6 |
| 20260505193023 | 20 | 232 | 3.2 | 14.5 | 0.00 | 0.84 | 0.38 | 55 | 1009.6 |
| 20260505192510 | 19 | 261 | 6.4 | 17.7 | 0.00 | 0.84 | 0.38 | 57 | 1009.8 |
| 20260505192007 | 19 | 267 | 9.7 | 17.7 | 0.00 | 0.84 | 0.38 | 56 | 1009.8 |
| 20260505191524 | 19 | 273 | 3.2 | 17.7 | 0.00 | 0.84 | 0.38 | 58 | 1009.8 |
| 20260505191011 | 19 | 273 | 8.0 | 17.7 | 0.00 | 0.84 | 0.38 | 57 | 1009.9 |
| 20260505190508 | 19 | 271 | 6.4 | 16.1 | 0.00 | 0.84 | 0.38 | 59 | 1009.9 |
| 20260505190008 | 18 | 265 | 3.2 | 16.1 | 0.00 | 0.84 | 0.38 | 59 | 1010.1 |
| 20260505185504 | 18 | 268 | 3.2 | 9.7 | 0.00 | 0.84 | 0.38 | 60 | 1010.2 |
| 20260505185004 | 18 | 269 | 1.6 | 16.1 | 0.00 | 0.84 | 0.38 | 59 | 1010.1 |
| 20260505184528 | 18 | 269 | 4.8 | 16.1 | 0.00 | 0.84 | 0.38 | 60 | 1010.1 |
| 20260505184008 | 18 | 270 | 8.0 | 16.1 | 0.00 | 0.84 | 0.38 | 59 | 1010.2 |
| 20260505183511 | 18 | 172 | 1.6 | 6.4 | 0.00 | 0.84 | 0.38 | 59 | 1010.3 |
| 20260505183038 | 19 | 172 | 0.0 | 8.0 | 0.00 | 0.84 | 0.38 | 60 | 1010.3 |
| 20260505182507 | 18 | 172 | 1.6 | 8.0 | 0.00 | 0.84 | 0.38 | 62 | 1010.5 |
| 20260505182009 | 18 | 172 | 0.0 | 6.4 | 0.00 | 0.84 | 0.38 | 62 | 1010.4 |
| 20260505181525 | 18 | 176 | 1.6 | 8.0 | 0.00 | 0.84 | 0.38 | 62 | 1010.5 |
| 20260505181012 | 18 | 176 | 0.0 | 8.0 | 0.00 | 0.84 | 0.38 | 61 | 1010.4 |
| 20260505180509 | 18 | 177 | 3.2 | 8.0 | 0.00 | 0.84 | 0.38 | 64 | 1010.6 |
| 20260505180024 | 17 | 176 | 1.6 | 8.0 | 0.00 | 0.84 | 0.38 | 64 | 1010.7 |
| 20260505175503 | 17 | 177 | 4.8 | 8.0 | 0.00 | 0.84 | 0.38 | 63 | 1010.7 |
| 20260505175005 | 17 | 176 | 3.2 | 8.0 | 0.00 | 0.84 | 0.38 | 64 | 1010.7 |
| 20260505174512 | 17 | 176 | 0.0 | 4.8 | 0.00 | 0.84 | 0.38 | 64 | 1010.7 |
| 20260505174006 | 17 | 176 | 1.6 | 3.2 | 0.00 | 0.84 | 0.38 | 64 | 1010.7 |
| 20260505173506 | 17 | 177 | 0.0 | 3.2 | 0.00 | 0.84 | 0.38 | 64 | 1010.7 |
| 20260505173021 | 17 | 176 | 0.0 | 4.8 | 0.00 | 0.84 | 0.38 | 65 | 1010.8 |
| 20260505172509 | 17 | 176 | 0.0 | 6.4 | 0.00 | 0.84 | 0.38 | 64 | 1010.8 |
| 20260505172013 | 17 | 176 | 0.0 | 8.0 | 0.00 | 0.84 | 0.38 | 64 | 1010.7 |
| 20260505171526 | 17 | 177 | 3.2 | 6.4 | 0.00 | 0.84 | 0.38 | 64 | 1010.7 |
| 20260505171011 | 17 | 176 | 0.0 | 6.4 | 0.00 | 0.84 | 0.38 | 64 | 1010.7 |
| 20260505170512 | 17 | 176 | 1.6 | 4.8 | 0.00 | 0.84 | 0.38 | 65 | 1010.7 |
| 20260505170024 | 17 | 176 | 1.6 | 14.5 | 0.00 | 0.84 | 0.38 | 65 | 1010.7 |
| 20260505165508 | 17 | 176 | 1.6 | 14.5 | 0.00 | 0.84 | 0.38 | 65 | 1010.7 |
| 20260505165010 | 17 | 176 | 0.0 | 8.0 | 0.00 | 0.84 | 0.38 | 66 | 1010.6 |
| 20260505164527 | 17 | 176 | 3.2 | 6.4 | 0.00 | 0.84 | 0.38 | 67 | 1010.7 |
| 20260505164003 | 17 | 176 | 1.6 | 6.4 | 0.00 | 0.84 | 0.38 | 69 | 1010.8 |
| 20260505163509 | 16 | 176 | 0.0 | 8.0 | 0.00 | 0.84 | 0.38 | 69 | 1010.8 |
| 20260505163015 | 16 | 176 | 1.6 | 9.7 | 0.00 | 0.84 | 0.38 | 68 | 1010.7 |
| 20260505162509 | 16 | 176 | 4.8 | 8.0 | 0.00 | 0.84 | 0.38 | 70 | 1010.6 |
| 20260505162010 | 16 | 176 | 1.6 | 6.4 | 0.00 | 0.84 | 0.38 | 71 | 1010.7 |
| 20260505161526 | 16 | 176 | 1.6 | 8.0 | 0.00 | 0.84 | 0.38 | 71 | 1010.7 |
| 20260505161009 | 15 | 176 | 0.0 | 8.0 | 0.00 | 0.84 | 0.38 | 74 | 1010.8 |
| 20260505160509 | 15 | 176 | 0.0 | 6.4 | 0.00 | 0.84 | 0.38 | 74 | 1010.8 |
| 20260505153016 | 15 | 176 | 0.0 | 3.2 | 0.00 | 0.84 | 0.38 | 82 | 1010.4 |
| 20260505152507 | 15 | 176 | 1.6 | 3.2 | 0.00 | 0.84 | 0.38 | 82 | 1010.5 |
| 20260505152010 | 15 | 176 | 0.0 | 4.8 | 0.00 | 0.84 | 0.38 | 83 | 1010.5 |
| 20260505151517 | 15 | 176 | 0.0 | 6.4 | 0.00 | 0.84 | 0.38 | 85 | 1010.5 |
| 20260505151009 | 15 | 176 | 1.6 | 6.4 | 0.00 | 0.84 | 0.38 | 85 | 1010.5 |
| 20260505150507 | 15 | 176 | 0.0 | 6.4 | 0.00 | 0.84 | 0.38 | 85 | 1010.4 |
| 20260505140510 | 14 | 176 | 0.0 | 0.0 | 0.00 | 0.84 | 0.38 | 85 | 1010.2 |
| 20260505125007 | 13 | 131 | 0.0 | 1.6 | 0.00 | 0.84 | 0.38 | 88 | 1009.5 |
| 20260505124504 | 13 | 131 | 0.0 | 1.6 | 0.00 | 0.84 | 0.38 | 88 | 1009.4 |
| 20260505124005 | 13 | 131 | 0.0 | 1.6 | 0.00 | 0.84 | 0.38 | 88 | 1009.4 |
| 20260505123505 | 13 | 131 | 0.0 | 1.6 | 0.00 | 0.84 | 0.38 | 88 | 1009.3 |
| 20260505123010 | 13 | 131 | 0.0 | 3.2 | 0.00 | 0.84 | 0.38 | 88 | 1009.2 |
| 20260505122504 | 13 | 131 | 0.0 | 3.2 | 0.00 | 0.84 | 0.38 | 88 | 1009.1 |
| 20260505122006 | 13 | 131 | 0.0 | 3.2 | 0.00 | 0.84 | 0.38 | 88 | 1009.2 |
| 20260505121513 | 13 | 131 | 0.0 | 0.0 | 0.00 | 0.84 | 0.38 | 88 | 1009.3 |
| 20260505121004 | 13 | 131 | 0.0 | 0.0 | 0.00 | 0.84 | 0.38 | 88 | 1009.3 |
| 20260505120507 | 13 | 131 | 0.0 | 0.0 | 0.00 | 0.84 | 0.38 | 88 | 1009.1 |
| 20260505120018 | 13 | 131 | 0.0 | 3.2 | 0.03 | 0.84 | 0.38 | 88 | 1009.2 |
| 20260505115513 | 13 | 131 | 0.0 | 4.8 | 0.03 | 0.84 | 0.38 | 88 | 1009.1 |
| 20260505115007 | 13 | 131 | 0.0 | 4.8 | 0.03 | 0.84 | 0.38 | 88 | 1009.1 |
| 20260505114522 | 13 | 131 | 0.0 | 4.8 | 0.03 | 0.84 | 0.38 | 88 | 1008.9 |
| 20260505114009 | 13 | 131 | 0.0 | 4.8 | 0.05 | 0.84 | 0.38 | 88 | 1008.8 |
| 20260505113512 | 13 | 131 | 0.0 | 4.8 | 0.05 | 0.84 | 0.38 | 88 | 1008.9 |
| 20260505113007 | 13 | 131 | 0.0 | 3.2 | 0.05 | 0.84 | 0.38 | 88 | 1009.0 |
| 20260505112503 | 13 | 131 | 0.0 | 3.2 | 0.05 | 0.84 | 0.38 | 88 | 1009.3 |
| 20260505112003 | 13 | 131 | 0.0 | 3.2 | 0.05 | 0.84 | 0.38 | 88 | 1009.3 |
| 20260505111511 | 13 | 131 | 0.0 | 3.2 | 0.08 | 0.84 | 0.38 | 88 | 1009.1 |
| 20260505111004 | 13 | 131 | 0.0 | 3.2 | 0.10 | 0.84 | 0.38 | 88 | 1009.1 |
| 20260505110504 | 13 | 131 | 0.0 | 3.2 | 0.10 | 0.84 | 0.38 | 87 | 1009.1 |
| 20260505102003 | 13 | 139 | 9.7 | 20.9 | 0.05 | 0.79 | 0.33 | 87 | 1009.8 |
| 20260505101513 | 13 | 153 | 8.0 | 24.1 | 0.03 | 0.76 | 0.30 | 87 | 1010.0 |
| 20260505101004 | 13 | 156 | 6.4 | 24.1 | 0.00 | 0.74 | 0.28 | 87 | 1010.2 |
| 20260505100502 | 13 | 157 | 4.8 | 22.5 | 0.03 | 0.74 | 0.28 | 87 | 1010.2 |
| 20260505100004 | 13 | 153 | 9.7 | 27.4 | 0.03 | 0.74 | 0.28 | 87 | 1010.0 |
| 20260505095502 | 13 | 144 | 12.9 | 27.4 | 0.03 | 0.74 | 0.28 | 87 | 1010.0 |
| 20260505095001 | 13 | 154 | 6.4 | 17.7 | 0.03 | 0.74 | 0.28 | 87 | 1009.9 |
| 20260505094512 | 13 | 139 | 6.4 | 17.7 | 0.05 | 0.74 | 0.28 | 87 | 1009.8 |
| 20260505094002 | 13 | 147 | 3.2 | 14.5 | 0.05 | 0.74 | 0.28 | 87 | 1009.8 |
| 20260505093503 | 13 | 145 | 4.8 | 14.5 | 0.05 | 0.74 | 0.28 | 87 | 1009.9 |
| 20260505093021 | 13 | 137 | 1.6 | 9.7 | 0.05 | 0.74 | 0.28 | 87 | 1010.1 |
| 20260505092504 | 13 | 137 | 3.2 | 12.9 | 0.08 | 0.74 | 0.28 | 88 | 1010.1 |
| 20260505092003 | 13 | 136 | 3.2 | 11.3 | 0.08 | 0.74 | 0.28 | 88 | 1010.3 |
| 20260505091507 | 13 | 136 | 1.6 | 6.4 | 0.10 | 0.74 | 0.28 | 88 | 1010.4 |
| 20260505091006 | 13 | 136 | 0.0 | 3.2 | 0.10 | 0.74 | 0.28 | 88 | 1010.5 |
| 20260505090504 | 13 | 136 | 0.0 | 3.2 | 0.10 | 0.71 | 0.25 | 88 | 1010.3 |
| 20260505090010 | 13 | 136 | 0.0 | 4.8 | 0.13 | 0.71 | 0.25 | 88 | 1010.3 |
| 20260505085505 | 13 | 136 | 1.6 | 6.4 | 0.13 | 0.71 | 0.25 | 88 | 1010.5 |
| 20260505085003 | 13 | 136 | 1.6 | 12.9 | 0.13 | 0.71 | 0.25 | 88 | 1010.7 |
| 20260505084503 | 13 | 136 | 0.0 | 12.9 | 0.13 | 0.69 | 0.23 | 88 | 1010.8 |
| 20260505084003 | 13 | 136 | 4.8 | 14.5 | 0.13 | 0.69 | 0.23 | 88 | 1010.9 |
| 20260505083505 | 13 | 136 | 4.8 | 14.5 | 0.15 | 0.69 | 0.23 | 88 | 1011.3 |
| 20260505083005 | 13 | 133 | 4.8 | 16.1 | 0.15 | 0.69 | 0.23 | 88 | 1011.4 |
| 20260505082505 | 13 | 132 | 6.4 | 14.5 | 0.15 | 0.66 | 0.20 | 88 | 1011.4 |
| 20260505082003 | 13 | 132 | 6.4 | 17.7 | 0.18 | 0.66 | 0.20 | 88 | 1011.8 |
| 20260505081504 | 13 | 126 | 4.8 | 17.7 | 0.18 | 0.64 | 0.18 | 88 | 1011.7 |
| 20260505081004 | 13 | 119 | 6.4 | 16.1 | 0.18 | 0.64 | 0.18 | 88 | 1011.7 |
| 20260505080503 | 13 | 118 | 4.8 | 11.3 | 0.15 | 0.61 | 0.15 | 88 | 1012.0 |
| 20260505080006 | 13 | 118 | 3.2 | 9.7 | 0.13 | 0.58 | 0.13 | 88 | 1012.3 |
| 20260505075506 | 13 | 117 | 3.2 | 8.0 | 0.15 | 0.58 | 0.13 | 88 | 1012.4 |
| 20260505075008 | 13 | 117 | 1.6 | 8.0 | 0.15 | 0.58 | 0.13 | 88 | 1012.5 |
| 20260505074515 | 14 | 117 | 1.6 | 8.0 | 0.15 | 0.56 | 0.10 | 88 | 1012.4 |
| 20260505074005 | 14 | 117 | 0.0 | 6.4 | 0.15 | 0.56 | 0.10 | 88 | 1012.5 |
| 20260505073502 | 14 | 117 | 1.6 | 6.4 | 0.15 | 0.53 | 0.08 | 88 | 1012.5 |
| 20260505073004 | 14 | 117 | 3.2 | 4.8 | 0.15 | 0.53 | 0.08 | 88 | 1012.5 |
| 20260505072502 | 14 | 117 | 0.0 | 4.8 | 0.15 | 0.51 | 0.05 | 87 | 1012.7 |
| 20260505072003 | 14 | 117 | 0.0 | 0.0 | 0.13 | 0.48 | 0.03 | 87 | 1012.9 |
| 20260505071505 | 14 | 117 | 0.0 | 0.0 | 0.13 | 0.46 | 0.00 | 87 | 1012.8 |
| 20260505071003 | 14 | 117 | 0.0 | 0.0 | 0.13 | 0.46 | 0.00 | 87 | 1012.7 |
| 20260505070504 | 14 | 117 | 0.0 | 0.0 | 0.13 | 0.46 | 0.00 | 87 | 1012.4 |
| 20260505070007 | 14 | 117 | 0.0 | 0.0 | 0.13 | 0.46 | 0.00 | 86 | 1012.5 |
| 20260505065505 | 14 | 117 | 0.0 | 0.0 | 0.10 | 0.43 | 0.43 | 86 | 1012.5 |
| 20260505065004 | 14 | 117 | 0.0 | 0.0 | 0.13 | 0.43 | 0.43 | 86 | 1012.5 |
| 20260505064511 | 14 | 117 | 0.0 | 1.6 | 0.10 | 0.41 | 0.41 | 86 | 1012.5 |
| 20260505064005 | 14 | 117 | 0.0 | 3.2 | 0.10 | 0.41 | 0.41 | 85 | 1012.5 |
| 20260505063506 | 14 | 117 | 1.6 | 1.6 | 0.08 | 0.38 | 0.38 | 85 | 1012.5 |
| 20260505063016 | 14 | 117 | 0.0 | 0.0 | 0.10 | 0.38 | 0.38 | 84 | 1012.6 |
| 20260505062503 | 14 | 117 | 0.0 | 0.0 | 0.08 | 0.36 | 0.36 | 84 | 1012.7 |
| 20260505062002 | 14 | 117 | 0.0 | 0.0 | 0.08 | 0.36 | 0.36 | 84 | 1012.8 |
| 20260505061504 | 14 | 117 | 0.0 | 0.0 | 0.05 | 0.33 | 0.33 | 83 | 1012.8 |
| 20260505061002 | 14 | 117 | 0.0 | 3.2 | 0.05 | 0.33 | 0.33 | 84 | 1012.8 |
| 20260505060503 | 14 | 117 | 0.0 | 3.2 | 0.05 | 0.33 | 0.33 | 84 | 1012.9 |
| 20260505060003 | 14 | 117 | 0.0 | 3.2 | 0.05 | 0.33 | 0.33 | 84 | 1012.9 |
| 20260505055504 | 14 | 117 | 0.0 | 4.8 | 0.05 | 0.33 | 0.33 | 84 | 1012.7 |
| 20260505055004 | 14 | 117 | 0.0 | 4.8 | 0.03 | 0.30 | 0.30 | 84 | 1012.4 |
| 20260505054506 | 14 | 117 | 0.0 | 4.8 | 0.03 | 0.30 | 0.30 | 84 | 1012.5 |
| 20260505054004 | 13 | 117 | 0.0 | 3.2 | 0.03 | 0.30 | 0.30 | 83 | 1012.5 |
| 20260505053506 | 13 | 117 | 0.0 | 0.0 | 0.03 | 0.30 | 0.30 | 83 | 1012.4 |
| 20260505053015 | 13 | 117 | 0.0 | 0.0 | 0.00 | 0.28 | 0.28 | 83 | 1012.5 |
| 20260505052508 | 13 | 117 | 0.0 | 0.0 | 0.03 | 0.28 | 0.28 | 83 | 1012.5 |
| 20260505052007 | 13 | 117 | 0.0 | 3.2 | 0.03 | 0.28 | 0.28 | 83 | 1012.4 |
| 20260505051520 | 13 | 117 | 0.0 | 3.2 | 0.05 | 0.28 | 0.28 | 83 | 1012.4 |
| 20260505051003 | 13 | 117 | 0.0 | 3.2 | 0.08 | 0.28 | 0.28 | 83 | 1012.4 |
| 20260505050504 | 13 | 117 | 1.6 | 3.2 | 0.08 | 0.28 | 0.28 | 82 | 1012.3 |
| 20260505041529 | 14 | 117 | 0.0 | 3.2 | 0.08 | 0.23 | 0.23 | 75 | 1012.7 |
| 20260505041009 | 14 | 117 | 0.0 | 3.2 | 0.05 | 0.20 | 0.20 | 74 | 1012.6 |
| 20260505040508 | 15 | 117 | 0.0 | 6.4 | 0.05 | 0.20 | 0.20 | 72 | 1012.7 |
| 20260505040032 | 15 | 117 | 0.0 | 6.4 | 0.03 | 0.18 | 0.18 | 72 | 1012.7 |
| 20260505035507 | 15 | 117 | 3.2 | 4.8 | 0.05 | 0.18 | 0.18 | 71 | 1012.6 |
| 20260505035007 | 15 | 117 | 0.0 | 6.4 | 0.03 | 0.15 | 0.15 | 70 | 1012.5 |
| 20260505034504 | 15 | 117 | 1.6 | 6.4 | 0.03 | 0.15 | 0.15 | 69 | 1012.4 |